Location: Felsheim
(48.7267°N, 10.7386°E)
Time: 04:02:35
(UTC+00:00)

MOS 1-B Rocket - Pass Details

Date: 09 April 2020
Orbit: 891 x 1605 km, 99.1° (Epoch: 06 June)

Event Time Altitude Azimuth Distance (km) Brightness Sun altitude
Rises 23:33:53 0° 13° (NNE) 3,684 8.1 -33.1°
Reaches altitude 10° 23:36:13 10° 11° (N) 2,796 7.2 -33.1°
Enters shadow 23:42:12 68° 304° (NW) 1,191 4.3 -33.0°
